Hourly Data Report for August 31, 2020

LYTTON RCS
BRITISH COLUMBIA
Current Station Operator: ECCC - MSC

50°13'28.000" N
121°34'55.000" W
225.00 m
1114746
71765
VLY

Download Data

Hourly Data (August 2020)
Hourly Data Report for August 31, 2020
TIME Temp Definition
°C
Dew Point Definition
°C
Rel Hum Definition
%
Wind Dir Definition
10's deg

Wind Spd Definition
km/h
Visibility Definition
km
Stn Press Definition
kPa
Hmdx Definition


Wind Chill Definition


Weather Definition


00:00 12.7 9.2 79 2 3   98.84     LegendNANA
01:00 12.5 9.7 83 3 3   98.87     LegendNANA
02:00 12.1 10.0 87 4 4   98.91     LegendNANA
03:00 11.8 9.8 87 2 3   98.95     LegendNANA
04:00 11.4 9.8 90 3 2   98.97     LegendNANA
05:00 11.7 10.2 91 0 1   99.02     LegendNANA
06:00 11.7 10.0 89 17 11   99.07     LegendNANA
07:00 12.1 10.0 87 16 1   99.14     LegendNANA
08:00 14.1 9.5 73 16 2   99.17     LegendNANA
09:00 16.9 8.3 57 18 23   99.09     LegendNANA
10:00 18.2 8.4 53 20 20   99.08     LegendNANA
11:00 18.1 7.6 50 18 30   99.06     LegendNANA
12:00 19.9 7.9 46 18 39   99.00     LegendNANA
13:00 19.8 8.2 47 18 33   98.97     LegendNANA
14:00 20.4 8.3 46 18 30   98.94     LegendNANA
15:00 20.5 8.8 47 19 29   98.85     LegendNANA
16:00 22.0 8.6 42 19 29   98.81     LegendNANA
17:00 20.3 8.3 46 19 35   98.73     LegendNANA
18:00 19.5 8.2 48 19 32   98.76     LegendNANA
19:00 18.8 8.4 51 19 37   98.77     LegendNANA
20:00 18.2 8.4 53 19 37   98.82     LegendNANA
21:00 18.0 8.4 53 19 39   98.81     LegendNANA
22:00 17.4 8.7 57 20 35   98.85     LegendNANA
23:00 17.4 8.9 57 19 37   98.83     LegendNANA

Notes on Data Quality.

Legend

  • E = Estimated
  • M = Missing
  • NA = Not Available*
  • [empty] = Indicates an unobserved value
Date modified: